Race Results for
Tri-Flow Menlo Park Grand Prix
Menlo Park, CA
(Event Information)
View By:
Criterium on 03/08/2008

Note: Ranking points are NOT upgrade points. An explanation of ranking points can be found here.


Men - Cat 1/2/3 - Master - 35-99

 Place Points NameCity, StateTime USAC #BibTeam
1528.29Patrick Briggs   Oakland, CA00:00:00.00 4838  607 California Giant/Specialized
2529.24Joel Robertson   San Leandro, CA00:00:00.00 220316  604 Sierra Pacific Racing
3530.19Christopher Hipp (1 - Cat1)   Redwood City, CA00:00:00.00 16294  632 Labor Power
4531.14William Innes   Menlo Park, CA00:00:00.00 52412  636 Team Specialized Racing
5532.09Chris Wire   Saratoga, CA00:00:00.00 152176  684 SJBC/SugarCRM
6533.04Dirk Copeland   Santa Clara, CA00:00:00.00 52843  614 California Giant/Specialized
7533.99Michael Ma   San Jose, CA00:00:00.00 41600  645 SJBC/SugarCRM
8534.94Scott Fonseca   Fair Oaks, CA00:00:00.00 204715  624 Zenn Cycling Team
9535.89Roger Bennett   San Carlos, CA00:00:00.00 197734  605 Morgan Stanley/24hr fitness/Sp
10536.83Ryan Wong   San Jose, CA00:00:00.00 42770  686 Easton-SugarCRM-Specialized
11537.78Jean Francois Moustirats   Arroyo Grande, CA00:00:00.00 40540  651 Rock Solid Cycling
12538.73Tim Granshaw   Redwood City, CA00:00:00.00 55803  659 Morgan Stanley Cycling Team
13539.68Matthew Tamel (1 - Cat2)   San Jose, CA00:00:00.00 63450  676 BPG / Montano Velo
14540.63Steven Gile   Salinas, CA00:00:00.00 98978  628 VOS racing
15541.58Oswaldo Orozco   San Francisco, CA00:00:00.00 47530  657 SJBC/Sugar CRM
16542.53Andrew Nevitt   Saratoga, CA00:00:00.00 47463  653 SJBC/SugarCRM
17543.48Michael Audley   Berkeley, CA00:00:00.00 130080  602 Team Specialized Racing
18544.43Patrick Tafoya   Redwood City, CA00:00:00.00 34910  675 VOS Racing
19545.38Michael Hutchinson   San Jose, CA00:00:00.00 156048  635 Morgan Stanley/Specialized/24
20546.33Richard Snodsmith   San Francisco, CA00:00:00.00 51411  690 TEAM CLIF BAR Cycling
21547.28Kalen Gruber   Los Altos Hills, CA00:00:00.00 49467  630 Easton/Sugar CRM/Specialized
22548.23Dylan Seguin   Boise, ID00:00:00.00 44296  670 TEAM CLIF BAR Cycling
23549.18Edward Nicolson   San Francisco, CA00:00:00.00 221687  654 CRC/Poggio
24550.13Chris Carscadden   Walnut Creek, CA00:00:00.00 165751  612 Lombardi sports/HDR
25551.08Ted Toribio   Elk Grove00:00:00.00 88963  677 International Christian Cyclin
26552.02Joe Molinari   Redwood City, CA00:00:00.00 24723  649 Form Fitness
27552.97Russell Clark   Fircrest, WA00:00:00.00 58580  613 LOOK CYCLE-USA Race Team
28553.92Benjamin Cota   San Jose, CA00:00:00.00 7881  615 Easton/Sugar CRM/Specialized
29554.87Mark Deterline   Salt Lake City, UT00:00:00.00 43613  621 Wells Fargo Racing Team
30555.82Thomas Carpenter   Oakland, CA00:00:00.00 169740  696 Team Oakland Cycling
31556.77Aaron Hunter   Santa Cruz, CA00:00:00.00 215194  634 SJBC/Sugar CRM
32557.72Ryan Ley   Reno, NV00:00:00.00 54565  692 Unattached
33558.67Richard Del Valle   San Jose, CA00:00:00.00 9150  619 Morgan Stanley/Specialized/24
34559.62Paul DeBacker   Mountain View, CA00:00:00.00 168436  617 Alto Velo
35560.57Clark Foy   Los Gatos, CA00:00:00.00 255066  626 SJBC/SugarCRM
36561.52Carl Hekkert   Sunnyvale, CA00:00:00.00 15729  631 SugarCRM-Easton-Specialized
37562.47Raffi Jilizian   Danville, CA00:00:00.00 187667  638 FORM Fitness
38563.42Eric Saltzman   Menlo Park, CA00:00:00.00 46157  667 Morgan Stanley/24 Hr Fitness/S
39564.37Craig Stewart   Orinda, CA00:00:00.00 205201  611 Lamorinda/Synergy Cycling Club
40565.32Richard Juarez   Mill Valley, CA00:00:00.00 71186  523 V.O.S.
41566.27Fredrick St Goar   Menlo Park, CA00:00:00.00 119548  674 Specialized Masters Racing
42567.21Grant Foster (1 - Cat3)   Los Gatos, CA00:00:00.00 110279  625 SJBC/SugarCRM
43568.16Eric Balfus   Los Gatos, CA00:00:00.00 690  603 Los Gatos Bicycle Racing Club
44569.11Clark Rasmussen   San Francisco, CA00:00:00.00 47316  664 
45570.06Stephen Langone   Redwood City, CA00:00:00.00 152079  644 Kaiser Permanente/Team Oakland
46571.01David Del Rosso   Dublin, CA00:00:00.00 187432  618 EMC2 / FELT
47571.96Daryl Spano   Fremont, CA00:00:00.00 146243  673 SJBC/SugarCRM
48572.91Steven Mielich   San Jose, CA00:00:00.00 136178  647 SJBC/SugarCRM
49573.86Shawn Oliver   St. Helena, CA00:00:00.00 46241  655 Morgan Stanley Specialized
50574.81Jon Gallagher (2 - Cat1)   Heber, UT00:00:00.00 61600  627 Cole Sport
51575.76Peter Wood   Cupertino, CA00:00:00.00 196669  687 Z TeaM
52576.71John O'Neill   San Mateo, CA00:00:00.00 52722  656 clover
53577.66Brian Laird   Menlo Park, CA00:00:00.00 20154  643 Labor Power
54578.61Christopher Phipps   San Francisco, CA00:00:00.00 233623  661 Morgan Stanley/24 Hr Fitness/S
55579.56Chris Black   San Luis Obispo, CA00:00:00.00 3814  606 Morgan Stanley/24 Hr Fitness/S
56580.51Myong-Jae Kim   San Rafael, CA00:00:00.00 199345  641 Berkeley Bicycle Club (BBC)
57581.46Nick Theobald   Burlingame, CA00:00:00.00 35297  691 California Giant Cycling
58582.40Dennis Hopp   San Jose, CA00:00:00.00 54895  633 Easton/Specialized
59583.35Stephen Pelaez   San Francisco, CA00:00:00.00 64481  669 NorCal Elite Cycling
60584.30Robert Winder   Lafayette, CA00:00:00.00 220285  683 NorCal Elite Cycling
61585.25Dave Nelson   San Jose, CA00:00:00.00 25843  652 GS Lombardi Sports
62586.20Forrest Koenig   San Anselmo, CA00:00:00.00 63475  610 TEAM CLIF BAR Cycling
63587.15Reed Maxwell   Golden, CO00:00:00.00 164136  688 Valley Spokesmen
65588.10Robert Parker   San Jose, CA00:00:00.00 48416  658 Webcor/Alto Velo
66589.05Dylan McReynolds   Berkeley, CA00:00:00.00 23832  646 Berkeley Bicycle Club (BBC)
67590.00Eric Walle   Berkeley, CA00:00:00.00 186029  680 Team Clif Bar Cycling
DNSChris Callahan   Alamo, CA00:00:00.00 242571  119 Wells Fargo Racing Team
DNSMatthew Carinio   San Luis Obispo, CA00:00:00.00 6109   Easton/SugarCRM/Specialized
DNSCraig Parker   Mill Valley, CA00:00:00.00 127588   ZteaM
DNSGene Ragan   Los Angeles, CA00:00:00.00 115909   Easton/SugarCRM/Specialized
DNSCraig Roemer   Petaluma, CA00:00:00.00 80925   TeamSpecializedRacing Masters
DNSCarter Schmeck   Auburn, CA00:00:00.00 31617   EMC2/Felt Bicycles
DNSSean Smith   Oakland, CA00:00:00.00 204018   Kaiser Permanente/Team Oakland
DNSNelson Willhite   Sunnyvale, CA00:00:00.00 219614   Sierra Express/TONC
DNSJamie Willin   Redwood City, CA00:00:00.00 38466   the olympic club
DNSJohn Wooldridge   Alamo, CA00:00:00.00 38940   Wells Fargo Racing Team
DNSMartin Wolff   Carmel, CA00:00:00.00 203646   VOS Racing
DNSMark Caldwell   Moraga, CA00:00:00.00 40039   morgan stanley/specialized/24h
DNPMark Vandenberghe   Lafayette, CA00:00:00.00 36393  600 Contra Costa Cycling Club
DNPRandy Armstrong   Morgan Hill, CA00:00:00.00 47828  601 SJBC/SugarCRM
DNPRichard Brockie   San Jose, CA00:00:00.00 195395  608 Fremont Freewheelers
DNPDavid Buccola   Pleasanton, CA00:00:00.00 195485  609 InfoVista Cycling Team
DNPMaurice Daroy   Brentwood, CA00:00:00.00 236133  616 InfoVista Cycling Team
DNPChad DeMasi   Davis, CA00:00:00.00 158049  620 Davis Bike Club
DNPJon Erskine   Soquel, CA00:00:00.00 10942  622 Los Gatos - Easton/Specialized
DNPIlan Eyman (Cat3)   Berkeley, CA00:00:00.00 207671  623 Berkeley Bicycle Club (BBC)
DNPwilson gorrell   Folsom, CA00:00:00.00 254622  629 Specialized/Sierra Nevada
DNPStephen Janke   Davis, CA00:00:00.00 188217  637 Davis Bike Club
DNPRichard Juarez   Mill Valley, CA00:00:00.00 71186  639 V.O.S.
DNPGreg Juneau   Milpitas, CA00:00:00.00 155436  640 Easton/SugarCRM/Specialized
DNPGuy Laidig   Woodside, CA00:00:00.00 48649  642 Webcor/Alto Velo
DNPPaul Mircik   Los Altos, CA00:00:00.00 126621  648 Easton/Specialized
DNPPatrick Monroe   Lafayette, CA00:00:00.00 90170  650 Eden Bicycles
DNPKaley Parkinson   Danville, CA00:00:00.00 195339  660 Synergy-Taleo
DNPJeff Poulsen   Arnold, CA00:00:00.00 28533  662 VOS Racing
DNPScott Rodamaker (Cat2)   Los Altos, CA00:00:00.00 30270  665 Webcor/Alto Velo
DNPMichael Hecker   Santa Ynez, CA00:00:00.00 48971  666 Unattached
DNPJoe Saunders   San Anselmo, CA00:00:00.00 47412  668 Team Spine
DNPDaniel Smith   Long Beach, CA00:00:00.00 196294  671 Morgan Stanley/Specialized/24h
DNPVaughn Van Note   Martinez, CA00:00:00.00 47564  678 Wells Fargo Racing Team
DNPMichael Vella   Saratoga, CA00:00:00.00 167402  679 Webcor / Alto Velo
DNPWilliam Dunham   San Jose, CA00:00:00.00 206162  689 Webcor/Alto Velo
DNPMarc Franklin   Menlo Park, CA00:00:00.00 374  693 Unattached
DNPBenjamin Bourne   Davis, CA00:00:00.00 40499  694 
DNPRick Adams   San Francisco, CA00:00:00.00 45010  697 Easton/Specialized
DNPJordi Cortes   Santa Cruz, CA00:00:00.00 41985  699 TEAM CLIF BAR Cycling
DNPDaniel Connelly   San Francisco, CA00:00:00.00 57307  698 Webcor/Alto Velo
DNFErnest Gallardo Sr   Soledad Ca.Inc. 12682  685 Pedali Alpini

Men - Cat 1/2/3/4/5 - Master - 45-99

 Place Points NameCity, StateTime USAC #BibTeam
1540.00David Del Rosso   Dublin, CA00:00:00.00 187432  512 EMC2 / FELT
2541.28Steven Gile   Salinas, CA00:00:00.00 98978  516 VOS racing
3542.56Rick Adams   San Francisco, CA00:00:00.00 45010  501 Easton/Specialized
4543.85Chris Black   San Luis Obispo, CA00:00:00.00 3814  508 Morgan Stanley/24 Hr Fitness/S
5545.13Ted Toribio   Elk Grove00:00:00.00 88963  554 International Christian Cyclin
6546.41Mark Caldwell   Moraga, CA00:00:00.00 40039  510 morgan stanley/specialized/24h
7547.69Joe Saunders   San Anselmo, CA00:00:00.00 47412  545 Team Spine
8548.97Shin Umeda   Sunnyvale, CA00:00:00.00 46023  555 Webcor/Alto Velo
9550.26Alan Nielson   Dublin, CA00:00:00.00 236183  530 Wells Fargo Racing Team
10551.54Dennis Pedersen   Santa Cruz, CA00:00:00.00 126404  535 Team Bicycle Trip
11552.82Mark Vandenberghe   Lafayette, CA00:00:00.00 36393  500 Wells Fargo Racing Team
12554.10Guy Laidig   Woodside, CA00:00:00.00 48649  524 Webcor/Alto Velo
13555.38Clark Rasmussen   San Francisco, CA00:00:00.00 47316  538 
14556.67Bernard Silveria   El Dorado Hills, CA00:00:00.00 94897  547 webcor/alto velo
15557.95Michael Audley   Berkeley, CA00:00:00.00 130080  504 Team Specialized Racing
16559.23Mark Lange (1 - Cat3)   Woodside, CA00:00:00.00 208336  525 Monta Vista Velo
17560.51Fredrick St Goar   Menlo Park, CA00:00:00.00 119548  550 Specialized Masters Racing
18561.79Randy Armstrong   Morgan Hill, CA00:00:00.00 47828  503 SJBC/SugarCRM
19563.08Steven Palladino   Santa Rosa, CA00:00:00.00 195557  532 Fightin' Bobas
20564.36Earle Baker   San Jose, CA00:00:00.00 204436  505 TBS Racing
21565.64Craig Stewart   Orinda, CA00:00:00.00 205201  551 Synergy-Taleo Racing
22566.92Michael Rizzo   Morgan Hill, CA00:00:00.00 59049  541 SJBC/SugarCRM
23568.21Michael Deusebio   Danville, CA00:00:00.00 9335  513 morgan stanley cycling team
24569.49Phillip Heiman   Penngrove, CA00:00:00.00 204100  518 Colavita/Sutterhome-Norcal
25570.77George Smith   Menlo Park, CA00:00:00.00 168005  549 Webcor/Alto Velo
26572.05John O'Neill   San Mateo, CA00:00:00.00 52722  531 clover
27573.33Steven Mielich   San Jose, CA00:00:00.00 136178  529 SJBC/SugarCRM
28574.62Richard Jones   Oakland, CA00:00:00.00 122040  522 Oakland Yellow Jackets
29575.90Leonel Quinteros   San Francisco, CA00:00:00.00 141358  536 Synergy-Taleo
30577.18Daniel Smith   Menlo Park, CA00:00:00.00 33087  548 Morgan Stanley/Specialized/24h
31578.46Greg Bollella   Redwood City, CA00:00:00.00 235126  509 Webcor / Alto Velo
32579.74Paul Ryan   San Ramon, CA00:00:00.00 112814  543 Synergy-Taleo
33581.03Patricia Bell   San Luis Obispo, CA00:00:00.00 72039  506 Morgan Stanley/24 Hr Fitness/S
34582.31Ileana Garcia-Parker   San Jose, CA00:00:00.00 236207  515 Webcor/Alto Velo
35583.59Thomas Graves (1 - Cat4)   Los Altos, CA00:00:00.00 222188  517 Webcor/Alto Velo
36584.87Tony Reid   Sacramento, CA00:00:00.00 29458  539 VOS Racing
37586.15Eric Saltzman   Menlo Park, CA00:00:00.00 46157  544 Morgan Stanley/24 Hr Fitness/S
38587.44Joe Fabris   Los Gatos, CA00:00:00.00 189959  514 Fightin' Bobas - Trail Head
39588.72Robert Parker   San Jose, CA00:00:00.00 48416  533 Webcor/Alto Velo
40590.00Vladan Strbac   Scotts Valley, CA00:00:00.00 259261  552 Team Bicycle Trip
DNSFrank Marquez   San Leandro, CA00:00:00.00 222555  528 FFBC RACE TEAM
DNSMartin Wolff   Carmel, CA00:00:00.00 203646   VOS Racing
DNSScott Calley   Monterey, CA00:00:00.00 195999   VOS Racing
DNSMark Linde (Cat5)   Menlo Prk, CA00:00:00.00 274148   
DNSPatrick Logan   San Ramon, CA00:00:00.00 242583   Third Pillar
DNSgeraldo reis jr   00:00:00.00   as. ciclismo corderopolis
DNPKelly Silberberg   San Anselmo, CA00:00:00.00 107871  546 Morgan Stanley/24hr Fitness/Sp
DNPMark Vandenberghe   Lafayette, CA00:00:00.00 36393  500 Contra Costa Cycling Club
DNPJorge Aguilar (Cat5)   San Jose, CA00:00:00.00 274058  502 NA
DNPEugene Beyer (Cat4)   Newark, CA00:00:00.00 213835  507 international christian cyclin
DNPDerrick Hemingway   San Jose, CA00:00:00.00 259077  519 SJBC/SugarCRM
DNPJohn Hostetler   Boulder Creek, CA00:00:00.00 243622  520 SJBC/SugarCRM
DNPJan Huptych   San Mateo, CA00:00:00.00 86954  521 NA
DNPRichard Juarez   Mill Valley, CA00:00:00.00 71186  523 V.O.S.
DNPMark Patten (Cat3)   San Jose, CA00:00:00.00 92552  534 webcor/alto velo
DNPJess Raphael   Napa, CA00:00:00.00 221460  537 VOS Racing
DNPRich Rozzi   Hollywood Ca00:00:00.00 230031  542 Colavita/Sutterhome-Norcal
DNPWilliam Tolhurst   Los Gatos, CA00:00:00.00 46005  553 Los Gatos Bicycle Racing Club
DNPSean Williams   Oakland, CA00:00:00.00 205876  556 East Bay Velo Club
DNPPatrick Tafoya   Redwood City, CA00:00:00.00 34910  557 Valley Spokesmen
DNPJohn Zunino   Arnold, CA00:00:00.00 196757  558 Pacific State Bank Cycling Tea
DNPMichael Vella   Saratoga, CA00:00:00.00 167402  559 Webcor/Alto Velo
DNPWilliam Dunham   San Jose, CA00:00:00.00 206162  560 Webcor/Alto Velo

Men - Cat 1/2/3/4/5 - Master - 55-99

 Place Points NameCity, StateTime USAC #BibTeam
1540.00Ernest Gallardo Sr   Soledad Ca.00:00:00.00 12682  587 Vos Racing
2546.25Richard Shields   Fremont, CA00:00:00.00 140693  593 Hammer Nutrition
3552.50Lawrence Broberg   Felton, CA00:00:00.00 4905  584 team bicycle trip
4558.75Rudi Verhoeven   Greenbrae, CA00:00:00.00 251327  598 Team CS
5565.00Mark Altamirano   San Francisco, CA00:00:00.00 45020  582 Mako
6571.25David Stockwell   San Jose, CA00:00:00.00 53052  594 SJBC/SugarCRM
7577.50Lawrence Szabo   Oakland, CA00:00:00.00 145186  596 Kaiser Permanente/Team Oakland
8583.75David Puglia   Saratoga, CA00:00:00.00 180139  591 Specialized/SugarCRM/EASTON
9590.00Morgan Caldwell   Lafayette, CA00:00:00.00 55374  585 Morgan Stanley/24 Hr Fitness
DNSMark Rodamaker   Los Altos, CA00:00:00.00 30269   Webcor/Alto Velo
DNSStephen Stuart   Sacramento, CA00:00:00.00 247131   Sacramento Golden Wheelmen
DNPAlan Atha   Novato, CA00:00:00.00 192209  583 TEAM CS
DNPWilliam Fallis   San Mateo, CA00:00:00.00 45315  586 Peninsula Velo/Kondra
DNPJ Gilford   Santa Cruz, CA00:00:00.00 87571  588 MorganStanley Specialized 24Hr
DNPTheodore Kallman   Florence, MA00:00:00.00 237005  589 Berkeley Bicycle Club
DNPKeith Kruse   Milpitas, CA00:00:00.00 237359  590 Fremont Freewheelers
DNPPeter Tapscott   Portola Valley, CA00:00:00.00 52800  597 Webcor/Alto Velo
DNPRichard Warner   Sunnyvale, CA00:00:00.00 268645  599 SJBC/SugarCRM

Men - Cat 3

 Place Points NameCity, StateTime USAC #BibTeam
1540.00Dylan Clark   Auburn, CA00:00:00.00 243069  418 BPG/Montano Velo
2540.71Neil Harrington   Los Altos Hills, CA00:00:00.00 247680  434 WEBCOR/ALTO VELO
3541.43Daniel Lam   Kalamazoo, MI00:00:00.00 239504  441 TBS Racing
4542.14Marshall Roberts   Oakland, CA00:00:00.00 236807  462 eden bicycles
5542.86Filip Vanacht   Los Altos, CA00:00:00.00 245198  470 Easton/SugarCRM/Specialized
6543.57R Todd Marshall   Sacramento, CA00:00:00.00 43936  446 Pacific Coast Cycling Club
7544.29Zachary Wick   Davis, CA00:00:00.00 200743  475 Davis Bike Club
8545.00Joe Molinari   Redwood City, CA00:00:00.00 24723  451 Form Fitness
9545.71Hunter Ziesing   Bel Tiburon, CA00:00:00.00 39478  479 ZteaM
10546.43Edward Nicolson   San Francisco, CA00:00:00.00 221687  454 CRC/Poggio
11547.14James Lo   San Ramon, CA00:00:00.00 190598  443 Webcor/Alto Velo
12547.86Charlie Avis   Palo Alto, CA00:00:00.00 224306  405 Team Specialized Racing Junior
13548.57Peter Bailey   Palo Alto, CA00:00:00.00 230238  406 Kovarus Squadra Ovest
14549.29Angelo DiGiovine   San Francisco, CA00:00:00.00 141326  425 Active Athlete / Squadra Ovest
15550.00Joshua Kadis   Brooklyn, NY00:00:00.00 92083  484 Unattached
16550.71Brandon Correia   Alameda, CA00:00:00.00 188308  486 Godspeed Courier
17551.43Scott Herring   Sausalito, CA00:00:00.00 236346  435 Touchstone Climbing
18552.14Jordi Cortes   Santa Cruz, CA00:00:00.00 41985  421 team clif bar
19552.86John Blasquez   Livermore, CA00:00:00.00 3914  409 Eden Bicycle Racing Club
20553.57Kevin Rennie   Menlo Park, CA00:00:00.00 124208  461 Webcor/Alto Velo
21554.29Nathan Shaw   Castro Valley, CA00:00:00.00 196249  465 shaw's/garden city
22555.00Greg Gomez   Mountain View, CA00:00:00.00 226091  431 Webcor / Alto Velo
23555.71Thomas Carpenter   Oakland, CA00:00:00.00 169740  488 Team Oakland Cycling
24556.43Joel Jacobson   Redwood City, CA00:00:00.00 63643  439 NA
25557.14Aaron Hanna   San Jose, CA00:00:00.00 204722  433 Easton/Specialized
26557.86Maurice Daroy   Brentwood, CA00:00:00.00 236133  423 InfoVista Cycling Team
27558.57Michael Holt   Morgan Hill, CA00:00:00.00 75334  436 TBS Racing
28559.29Jesse Bastide   Falmouth, ME00:00:00.00 73946  408 CMO
29560.00Gregory White   Lafayette, CA00:00:00.00 246669  472 Kovarus / ABTA
30560.71Aaron Hunter   Santa Cruz, CA00:00:00.00 215194  438 SJBC/Sugar CRM
31561.43Ilan Eyman   Berkeley, CA00:00:00.00 207671  427 Berkeley Bicycle Club (BBC)
32562.14Peter Wood   Cupertino, CA00:00:00.00 196669  480 ZteaM
33562.86Robert Meyer   Mountain View, CA00:00:00.00 255751  450 Stanford University Cycling
34563.57carmi Schulman   Seattle, WA00:00:00.00 200292  464 Active Athlete/Squadra Ovest
35564.29Dylan McReynolds   Berkeley, CA00:00:00.00 23832  448 Berkeley Bicycle Club (BBC)
36565.00Sassan Golafshan   Palo Alto, CA00:00:00.00 169945  430 Form Fitness
37565.71Victoria Bastide   Menlo Park, CA00:00:00.00 234836  487 Team TIBCO
38566.43Ryan Cole   San Francisco, CA00:00:00.00 221574  419 Squadra Ovest/Active Athlete
39567.14Earle Baker   San Jose, CA00:00:00.00 204436  407 TBS Racing
40567.86Santiago Bolon   San Jose, CA00:00:00.00 195384  410 ICCC
41568.57Stephen Langone   Redwood City, CA00:00:00.00 152079  442 Kaiser Permanente/Team Oakland
42569.29David Buccola   Pleasanton, CA00:00:00.00 195485  412 InfoVista Cycling Team
43570.00Kent Lourenzo   Discovery Bay, CA00:00:00.00 72054  444 Wells Fargo Racing Team
44570.71Michael Cruz   Danville, CA00:00:00.00 217914  422 NA
45571.43Ethan Atkins   San Francisco, CA00:00:00.00 224998  483 Century Road Club Association
46572.14Lance Cameron   Pacific Grove, CA00:00:00.00 5900  415 Don Chapin Monterey Bay Racing
47572.86Robert Collier   Oakland, CA00:00:00.00 180155  420 Metromint Cycling
48573.57Chris Stastny   Vacaville, CA00:00:00.00 249743  467 Davis Bike Club
49574.29Bradley Moore   San Mateo, CA00:00:00.00 85429  453 Adobe / Schwalbe Racing - P.B.
50575.00Tony Homes   Danville, CA00:00:00.00 210572  437 Wells Fargo Racing Team
51575.71William Dunham   San Jose, CA00:00:00.00 206162  426 Webcor/Alto Velo
52marcos pineda   00:00:00.00  457 superior cycling club
53577.14Jeff Williams   Los Gatos, CA00:00:00.00 236985  477 Webcor/Alto Velo
54577.86Murat Ozgur   Los Altos, CA00:00:00.00 41335  455 Active Athlete/Squadra Ovest
55578.57Robert White   Morgan Hill, CA00:00:00.00 97873  473 TBS Racing
56579.29Dan Adkins   Oakland, CA00:00:00.00 177509  403 Metromint Cycling
57580.00Trevor Scott   Oxford, OH00:00:00.00 232427  485 Eastside Cycling
58580.71Patrick McLaughlin   Lafayette, CA00:00:00.00 227027  447 Wells Fargo Racing Team
59581.43Mary Elizabeth Maroon   Sacramento, CA00:00:00.00 219555  445 vanderkitten
60582.14Vaughn Van Note   Martinez, CA00:00:00.00 47564  469 Wells Fargo Racing Team
61582.86Ryan Prsha   San Jose, CA00:00:00.00 247068  459 Webcor/Alto Velo
62583.57Russell White   Lafayette, CA00:00:00.00 236024  474 Kovarus/ ABTA
63584.29David Porter   San Jose, CA00:00:00.00 126711  458 TBS Racing
64585.00Michael Vella   Saratoga, CA00:00:00.00 167402  471 Webcor / Alto Velo
65585.71Myong-Jae Kim   San Rafael, CA00:00:00.00 199345  440 Berkeley Bicycle Club (BBC)
66586.43Richard Brockie   San Jose, CA00:00:00.00 195395  411 Fremont Freewheelers
67587.14Patrick Monroe   Lafayette, CA00:00:00.00 90170  452 Eden Bicycles
68587.86Irving Arguello   Millbrae, CA00:00:00.00 134895  404 Mcguire Cycling Team
69588.57Ted Burns   Madison, WI00:00:00.00 51292  413 Webcor/Alto Velo
70589.29John Foster   Mountain View, CA00:00:00.00 43445  428 Form Fitness
71590.00Geoffrey Davis   San Luis Obispo, CA00:00:00.00 205688  489 Active Athlete/Squadra Ovest
DNSUNKNOWN RIDER      
DNSJohn Wooldridge   Alamo, CA00:00:00.00 38940   Wells Fargo Racing Team
DNPDavid Acri   San Francisco00:00:00.00 233803  401 active athlete/squadra ovest
DNPGabriel Byrne   Santa Cruz, CA00:00:00.00 178761  414 Active Athlete/Squadra Ovest
DNPMatthew Carinio   San Luis Obispo, CA00:00:00.00 6109  416 Easton/SugarCRM/Specialized
DNPJoseph Christensen   Clements, CA00:00:00.00 240832  417 Rocket Sports Racing
DNPAaron Gallardo   Woodland Hills Ca00:00:00.00 160366  429 Active Athlete/Squadra Ovest
DNPwilson gorrell   Folsom, CA00:00:00.00 254622  432 Specialized/Sierra Nevada
DNPBrian Meiers   Hemet, CA00:00:00.00 211871  449 Team Fremont/Sugar CRM
DNPKaley Parkinson   Danville, CA00:00:00.00 195339  456 Synergy-Taleo
DNPGene Ragan   Los Angeles, CA00:00:00.00 115909  460 Easton/SugarCRM/Specialized
DNPSean Smith   Oakland, CA00:00:00.00 204018  466 Kaiser Permanente/Team Oakland
DNPDan Tedford   Mountain View, CA00:00:00.00 196695  468 Active Athlete/Squadra Ovest
DNPNelson Willhite   Sunnyvale, CA00:00:00.00 219614  476 Sierra Express/TONC
DNPJ Devon Alvarez   Park City, UT00:00:00.00 1498  482 Cole Sport
DNPEric Ryba   Durango, CO00:00:00.00 205364  463 ZteaM Cycling

Men - Cat 3/4 - Master - 35-99

 Place Points NameCity, StateTime USAC #BibTeam
1540.00Ernest Gallardo   Greenfield, CA00:00:00.00 90586  328 Synergy
2540.77David Buccola   Pleasanton, CA00:00:00.00 195485  317 InfoVista Cycling Team
3541.54Joseph Devera   Santa Cruz, CA00:00:00.00 50739  324 NA
4542.31Edward Nicolson   San Francisco, CA00:00:00.00 221687  359 CRC/Poggio
5543.08Doug Rappaport   San Francisco, CAHill & Co. 198514  373 CRC
6543.85John Ormsby   Berkeley, CA00:00:00.00 219328  360 Touchstone Climbing
7544.62John Wooldridge   Alamo, CA00:00:00.00 38940  399 Wells Fargo Racing Team
8545.38Bernard Silveria   El Dorado Hills, CA00:00:00.00 94897  381 webcor/alto velo
9546.15Dan Tedford   Mountain View, CA00:00:00.00 196695  389 Active Athlete/Squadra Ovest
10546.92Jess Raphael   Napa, CA00:00:00.00 221460  372 VOS Racing
11547.69Devin Koch   Truckee, CA00:00:00.00 260704  346 Dolce Vita
12548.46Murray Swanson   Woodside, CA00:00:00.00 206144  387 Peninsula Velo/Kondra Systems
13549.23wilson gorrell   Folsom, CA00:00:00.00 254622  330 Specialized/Sierra Nevada
14550.00Dennis Baker   Sacramento, CA00:00:00.00 255279  305 Sacramento Golden Wheelmen
15550.77Hunter Ziesing   Bel Tiburon, CA00:00:00.00 39478  300 ZteaM
16551.54Sassan Golafshan   Palo Alto, CA00:00:00.00 169945  329 Form Fitness
17552.31R Todd Marshall   Sacramento, CA00:00:00.00 43936  353 Pacific Coast Cycling Club
18553.08Santiago Bolon   San Jose, CA00:00:00.00 195384  314 ICCC
19553.85Vladan Strbac   Scotts Valley, CA00:00:00.00 259261  386 Team Bicycle Trip
20554.62Sean Williams   Oakland, CA00:00:00.00 205876  398 East Bay Velo Club
21555.38Kent Lourenzo   Discovery Bay, CA00:00:00.00 72054  351 Wells Fargo Racing Team
22556.15Shin Umeda   Sunnyvale, CA00:00:00.00 46023  393 Webcor/Alto Velo
23556.92Maurice Daroy   Brentwood, CA00:00:00.00 236133  321 InfoVista Cycling Team
24557.69Andrew Posselt   Mill Valley, CA00:00:00.00 216827  366 Active Athlete/Squadra Ovest
25558.46William Ruffner   Morgan Hill, CA00:00:00.00 220929  379 TBS Racing
26559.23Louis Toba   Palo Alto, CA00:00:00.00 56384  391 Webcor Alto Velo
27560.00Earle Baker   San Jose, CA00:00:00.00 204436  306 TBS Racing
28560.77John Hostetler   Boulder Creek, CA00:00:00.00 243622  336 SJBC/SugarCRM
29561.54Geoff Wilcox (1 - Cat4)   Richmond , CA00:00:00.00 253588  396 Altezza 40
30562.31Hans Kellner   Oakland, CA00:00:00.00 43368  344 Sycip Racing
31563.08Irving Arguello   Millbrae, CA00:00:00.00 134895  304 Mcguire Cycling Team
32563.85Matthew Smith   Emeryville, CA00:00:00.00 228089  384 East Bay Velo Club
33564.62Tyron Hooper   San Francisco, CA00:00:00.00 251276  335 Fusion Sport
34565.38Rich Rozzi   Hollywood Ca00:00:00.00 230031  378 Colavita/Sutterhome-Norcal
35566.15Gary Broeder   Morgan Hill, CA00:00:00.00 207471  315 SJBC/SugarCRM
36566.92David Porter   San Jose, CA00:00:00.00 126711  365 TBS Racing
37567.69Phillip Heiman   Penngrove, CA00:00:00.00 204100  332 Colavita/Sutterhome-Norcal
38568.46Eric Ryba (1 - Cat3)   Durango, CO00:00:00.00 205364  380 ZteaM Cycling
39569.23Andreas Vogel   San Francisco, CA00:00:00.00 237199  394 CyclingCalifornia.Com
40570.00Robert White   Morgan Hill, CA00:00:00.00 97873  395 TBS Racing
41570.77Jagjit Johal   San Mateo, CA00:00:00.00 259595  342 Peninsula Velo/Kondra Systems
42571.54Kevin Threm   Aptos, CA00:00:00.00 255687  390 NA
43572.31Warren Lane   Lafayette, CA00:00:00.00 227316  348 Synergy-Taleo Racing
44573.08Michael Boals   Berkeley, CA00:00:00.00 221818  311 Metromint Cycling on Marin Bik
45573.85Jodi Birrell   Morgan Hill, CA00:00:00.00 260006  310 TBS Racing
46574.62Allen Brumm   Foster City, CA00:00:00.00 195431  316 Webcor/Alto Velo
47575.38Anthony Eng   El Cerrito, CA00:00:00.00 245065  326 Kaiser Permanente / Team Oakla
48576.15Ralph King   San Mateo, CA00:00:00.00 52299  345 third Pillar
49576.92Peter Tousignant   Belmont, CA00:00:00.00 231855  392 third pillar
50577.69Gregory Bennett   San Francisco, CA00:00:00.00 205105  308 Dolce Vita
51578.46Fred Ramos   Davis, CA00:00:00.00 195221  370 Zenn Cycling Team
52579.23David Rossow   Los Gatos, CA00:00:00.00 232665  377 Webcor/Alto Velo
53580.00Robbie Abundis   Aptos, CA00:00:00.00 89807  301 THE BICYCLE TRIP
54580.77Paul Taylor   Brentwood, CA00:00:00.00 207281  388 Metromint
55581.54Jesse Baliscao   Aptos, CA00:00:00.00 271991  307 SJBC/SugarCRM
56582.31Bret Martin   Oakland, CA00:00:00.00 60446  354 Sycip
57583.08Robert Collier   Oakland, CA00:00:00.00 180155  319 Metromint Cycling
58583.85George Meilahn   Antioch, CA00:00:00.00 166581  357 International Christian Cyclin
59584.62Scott Lewis   San Jose, CA00:00:00.00 166779  349 TBS Racing
60585.38Tony Reid   Sacramento, CA00:00:00.00 29458  374 VOS Racing
61586.15Eugene Beyer (2 - Cat4)   Newark, CA00:00:00.00 213835  309 international christian cyclin
62586.92Jonathan Racine   San Jose, CA00:00:00.00 200129  368 SJBC/SugarCRM
63587.69Tony Homes   Danville, CA00:00:00.00 210572  334 Wells Fargo Racing Team
64588.46C Jeffrey Bramlett   Palo Alto, CA00:00:00.00 202272  382 Unattached
65589.23wayne hansen   Palo Alto, CA00:00:00.00 272247  331 NA
66590.00Mark Patten (2 - Cat3)   San Jose, CA00:00:00.00 92552  364 webcor/alto velo
DNSMatt Bokemeier   San Jose, CA00:00:00.00 254319  313 SJBC/SugarCRM
DNSMichael Delange   Orinda, CA00:00:00.00 203729  322 Wells Fargo Racing Team
DNSJuan Ortiz   Castro Valley, CA00:00:00.00 26838  361 Fusion Sport
DNSScott Calley   Monterey, CA00:00:00.00 195999   VOS Racing
DNSJim Hunton   San Jose, CA00:00:00.00 204853   SJBC/SugarCRM
DNSWilliam Dunham   San Jose, CA00:00:00.00 206162   Webcor/Alto Velo
DNSJonathan Hunt   San Francisco, CA00:00:00.00 260123   Freewheel Bike Shop
DNSDavid Puglia   Saratoga, CA00:00:00.00 180139   Specialized/SugarCRM/EASTON
DNSRaj Singh   San Jose, CA00:00:00.00 265000   SJBC/SugarCRM
DNSNelson Willhite   Sunnyvale, CA00:00:00.00 219614   Sierra Express/TONC
DNSRobert Miller   Lafayette, CA00:00:00.00 205213   LaMOrinda/Synergy-Taleo Racing
DNPDavid Acri   San Francisco00:00:00.00 233803  302 active athlete/squadra ovest
DNPJoe Amon   San Rafael, CA00:00:00.00 71366  303 ZteaM Cycling
DNPMichael Boehme   Windsor, CA00:00:00.00 252576  312 Colavita/Sutterhome-Norcal
DNPDaniel Connelly   San Francisco, CA00:00:00.00 57307  320 Webcor/Alto Velo
DNPChad DeMasi   Davis, CA00:00:00.00 158049  323 Davis Bike Club
DNPChris Callahan   Alamo, CA00:00:00.00 242571  325 Contra Costa Cycling Club
DNPAaron Gallardo   Woodland Hills Ca00:00:00.00 160366  327 Active Athlete/Squadra Ovest
DNPMichael Holt   Morgan Hill, CA00:00:00.00 75334  333 TBS Racing
DNPAllen House   Pleasanton, CA00:00:00.00 219153  337 VSRT LifestyleRx
DNPEdward Miszjiewicz   00:00:00.00  338 Roaring Mouse
DNPKaley Parkinson   Danville, CA00:00:00.00 195339  339 Unattached
DNPJan Huptych   San Mateo, CA00:00:00.00 86954  340 NA
DNPStephen Janke   Davis, CA00:00:00.00 188217  341 Davis Bike Club
DNPAllen Jones   Dublin, CA00:00:00.00 255750  343 InfoVista Cycling Team
DNPBill Laddish   Castro Valley, CA00:00:00.00 20105  347 NA
DNPJohn Licatesi   Davis, CA00:00:00.00 183265  350 Davis Bike Club
DNPTodd Manley   San Jose, CA00:00:00.00 253905  352 SJBC/SugarCRM
DNPMark Mastoras   San Bruno, CA00:00:00.00 117797  355 Active Athlete/Squadra Ovest
DNPRussell McCrary   San Ramon, CA00:00:00.00 253276  356 ZteaM Cycling
DNPLeonel Quinteros   San Francisco, CA00:00:00.00 141358  358 Lamorinda/Synergy Cycling Club
DNPMurat Ozgur   Los Altos, CA00:00:00.00 41335  362 Active Athlete/Squadra Ovest
DNPDonald Parsons   Pleasanton, CA00:00:00.00 254434  363 InfoVista Cycling Team
DNPRichard Shields   Fremont, CA00:00:00.00 140693  367 Team Hammer Nutrition
DNPJuan Raigoza   Redwood City, CA00:00:00.00 219477  369 Webcor/Alto Velo
DNPLloyd Ranola   Oakland, CA00:00:00.00 198425  371 Active Athlete/Squadra Ovest
DNPGordon Richardson   Sacramento, CA00:00:00.00 198509  375 
DNPRob Robinson   Castro Valley, CA00:00:00.00 271386  376 Zteam Cycling
DNPGeorge Smith   Menlo Park, CA00:00:00.00 168005  383 Webcor/Alto Velo
DNPGary Stein   San Francisco, CA00:00:00.00 159974  385 CRC/Hill & Co.
DNPMichael Flynn   San Jose, CA00:00:00.00 154840  397 San Jose Bicycle Club

Men - Cat 4

 Place Points NameCity, StateTime USAC #BibTeam
1540.00Toby Long   Oakland, CA00:00:00.00 262539  145 Kaiser Permanente / Team Oakla
2540.60Anthony Borba   Campbell, CA00:00:00.00 255377  113 Third Pillar
3541.19Todd Kohli   San Francisco, CA00:00:00.00 198414  141 metro Mint
4541.79Matt Peterson   San Francisco, CA00:00:00.00 193600  162 Roaring Mouse Cycles
5542.38David Mayer   Portola Valley, CA00:00:00.00 120501  149 Third Pillar
6542.98Mark Polizzi   Austin, TX00:00:00.00 273630  164 colavita- sutter home
7543.57Gaelan Mundorff   Fremont, CA00:00:00.00 196301  151 Third Pillar
8544.17German Villa   San Lorenzo, CA00:00:00.00 224232  192 Berkeley Bicycle Club (BBC)
9544.76Robert (Grant) Riggs   Burlingame, CA00:00:00.00 254731  172 Peninsula Velo Cycling Club
10545.36Lloyd Ranola   Oakland, CA00:00:00.00 198425  168 Active Athlete/Squadra Ovest
11545.95Brian Johnston   San Francisco, CA00:00:00.00 237599  136 Kaiser Permanente/Team Oakland
12546.55Caden Taylor   Tucson, AZ00:00:00.00 240890  184 form fitness
13547.14Donald Harris   San Francisco, CA00:00:00.00 271814  130 dolce vita
14547.74Rob Robinson   Castro Valley, CA00:00:00.00 271386  174 Zteam Cycling
15548.33John Zunino   Arnold, CA00:00:00.00 196757  100 Pacific State Bank Cycling Tea
16548.93Robert Orcutt   Scotts Valley, CA00:00:00.00 269340  159 Webcor / alto velo
17549.52Ed Richardson   Livermore, CA00:00:00.00 272019  171 InfoVista/East Bay Cyclists
18550.12Devin Koch   Truckee, CA00:00:00.00 260704  116 Dolce Vita
19550.71Seth Berling   Belvedere, CA00:00:00.00 266706  109 Roaring Mouse Cycles
20551.31Jesse Baliscao   Aptos, CA00:00:00.00 271991  106 SJBC/SugarCRM
21551.90Raleigh Kay   Tracy, CA00:00:00.00 209395  138 Now Direct
22552.50Stephen Harris   San Francisco, CA00:00:00.00 205958  131 Active Athlete/Squadra Ovest
23553.10John Ormsby   Berkeley, CA00:00:00.00 219328  160 Touchstone Climbing
24553.69Robert Skinner   San Jose, CA00:00:00.00 255408  180 TBS Racing
25554.29Bryan King   Santa Cruz, CA00:00:00.00 235330  139 Team Bicycle Trip
26554.88Mark Herynk   Redwood City, CA00:00:00.00 157123  132 Webcor/Alto Velo
27555.48Matthew Hirschey   Mill Valley, CA00:00:00.00 236106  134 Endurance PTC
28556.07Timothy Simanski   Hayward, CA00:00:00.00 223810  178 Team Roaring Mouse
29556.67Tyron Hooper   San Francisco, CA00:00:00.00 251276  135 Fusion Sport
30557.26Trevor Nibbi   Hanover, NH00:00:00.00 240575  153 Alto Velo
31557.86Matthew Sullivant   Redwood City, CA00:00:00.00 235630  183 Peninsula Velo/Kondra Systems
32558.45Jeff Remer   El Cerrito, CA00:00:00.00 267197  170 Roaring Mouse Cycles
33559.05Lars Norlund   Santa Rosa, CA00:00:00.00 110988  155 2 WHEEL RACING
34559.64Paul Sechrist   San Jose, CA00:00:00.00 212035  177 Webcor/Alto Velo
35560.24Michael Simos   Redwood City, CA00:00:00.00 271296  179 Easton/SugarCRM/Specialized
36560.83Kalman Zeiger   San Francisco, CA00:00:00.00 237651  199 NA
37561.43Bill Laddish   Castro Valley, CA00:00:00.00 20105  128 
38562.02Keith Jordon   Hayward, CA00:00:00.00 254515  137 Berkeley Bicycle Club (BBC)
39UNKNOWN RIDER   00:00:00.00  xxx 
40563.21Tim Fehon   San Francisco, CA00:00:00.00 263093  126 NA
41563.81Ryan Byars   Durham, NC00:00:00.00 266612  115 Roaring Mouse Cycles
42564.40Michael Boals   Berkeley, CA00:00:00.00 221818  111 Metromint Cycling on Marin Bik
43565.00Kevin Davis   Palo Alto, CA00:00:00.00 257793  122 QuadCycles
44565.60Josh LaGrange   Bend, OR00:00:00.00 201330  142 Form Fitness
45566.19Michael Delange   Orinda, CA00:00:00.00 203729  123 Wells Fargo Racing Team
46566.79Christian Marsh   Oakland, CA00:00:00.00 255406  148 Metromint Cycling on Marin Bik
47567.38William (Billy) Crane   Mountain View, CA00:00:00.00 138129  121 Webcor/ Alto Velo
48567.98Chris Callahan   Alamo, CA00:00:00.00 242571  119 Wells Fargo Racing Team
49568.57Allen Brumm   Foster City, CA00:00:00.00 195431  114 Webcor/Alto Velo
50569.17Matthew Triska   San Francisco, CA00:00:00.00 257229  189 Active Athlete/Squadra Ovest
51569.76Peter Tousignant   Belmont, CA00:00:00.00 231855  188 third pillar
52570.36Kevin Threm   Aptos, CA00:00:00.00 255687  186 NA
53570.95Oscar Nunez   Menlo Park, CA00:00:00.00 220085  156 Fremont Freewheelers
54571.55Anthony Eng   El Cerrito, CA00:00:00.00 245065  125 Kaiser Permanente / Team Oakla
55572.14Andy Copleman   Campbell, CA00:00:00.00 208619  120 NA
56572.74Oscar Aguilera   Concord, CA00:00:00.00 271253  101 N/A
57573.33David Rossow   Los Gatos, CA00:00:00.00 232665  175 Webcor/Alto Velo
58573.93Dennis Baker   Sacramento, CA00:00:00.00 255279  103 
59UNKNOWN RIDER   00:00:00.00  yyy 
60575.12Shawn Benjamin   Chestnut Hill, MA00:00:00.00 232424  107 Berkeley Bicycle Club
61575.71Ryan Nickelson   Danville, CA00:00:00.00 227002  154 Wells Fargo Racing Team
62576.31Fred Ramos   Davis, CA00:00:00.00 195221  167 Zenn Cycling Team
63576.90Willem Voorthuijsen   Morristown, NJ00:00:00.00 259694  195 Active Athlete / Squadra Ovest
64577.50Valdimir Sayno   San Jose, CA00:00:00.00 270447  176 SJBC/SugarCRM
65578.10Eliot Logan   Palo Alto, CA00:00:00.00 182819  143 Webcor/Alto Velo
66578.69Samuel Wilson   Emerald Hills, CA00:00:00.00 236637  197 Webcor / Alto Velo
67579.29Rory Osbrink   Pleasanton, CA00:00:00.00 218676  161 Webcor/Alto Velo
68579.88rene dominguez   Santaclara, CA00:00:00.00 271755  124 superior cycling club
69580.48Paul Taylor   Brentwood, CA00:00:00.00 207281  185 Metromint
70581.07Floyd Long   Alameda, CA00:00:00.00 256125  144 Kaiser Permanente/Team Oakland
71581.67Matthew Smith   Emeryville, CA00:00:00.00 228089  181 East Bay Velo Club
72582.26Juan Raigoza   Redwood City, CA00:00:00.00 219477  166 Webcor/Alto Velo
73582.86jacob olds   Philadelphia, PA00:00:00.00 268040  158 NA
74583.45Nathanael Christensen   Clements, CA00:00:00.00 239919  118 Rocket Sports Racing
75584.05Romeo Uriarte   Orinda, CA00:00:00.00 262503  190 Berkeley Bicycle Club
76584.64Timothy Bisson   San Jose, CA00:00:00.00 221552  110 Fremont Freewheelers
77585.24Dustin Gibbs   Redwood City, CA00:00:00.00 244176  127 Peninsula Velo/Kondra Systems
78UNKNOWN RIDER   00:00:00.00  zzz 
79586.43Robert Werner   San Carlos, CA00:00:00.00 236490  196 Webcor/Alto Velo
80587.02Barrett Ausman   San Jose, CA00:00:00.00 186327  105 Webcor/Alto Velo
81587.62Benjamin Stern   Mequon, WI00:00:00.00 238365  182 Roaring Mouse Cycles
82588.21David Knight   San Jose, CA00:00:00.00 255835  140 SJBC/SugarCRM
83588.81Michael Boehme   Windsor, CA00:00:00.00 252576  112 Colavita/Sutterhome-Norcal
84589.40Eduardo Villasana   San Francisco, CA00:00:00.00 236006  193 Roaring Mouse Cycles
85590.00Travis Tonn   Campbell, CA00:00:00.00 207754  187 SJBC/SugarCRM
DNSTobias Lopez   San Jose, CA00:00:00.00 207673  146 superior cycling club
DNSRobert Nerrie   Redwood City, CA00:00:00.00 221742  152 
DNSJosef Nygaard   San Francisco, CA00:00:00.00 227889  157 Team Swift
DNSJames Phillips   Santa Cruz, CA00:00:00.00 220094  163 Touchstone
DNSStephen Ransom   San Francisco, CA00:00:00.00 59104  169 Dolce Vita
DNSDavid Gindy   Santa Rosa, CA00:00:00.00 255438   2Wheelracing
DNSDavid Allbut   San Jose, CA00:00:00.00 206176   Team Bicycle Business
DNPJesus Aguirre   00:00:00.00  102 Superior Cycling Team
DNPJoe Amon   San Rafael, CA00:00:00.00 71366  104 ZteaM Cycling
DNPGregory Bennett   San Francisco, CA00:00:00.00 205105  108 Dolce Vita
DNPAndrew Campbell   Oakland, CA00:00:00.00 231736  117 Berkeley Bicycle Club
DNPJoshua Hadley   San Jose, CA00:00:00.00 254514  129 Webcor/Alto Velo
DNPKalani Hines   San Francisco, CA00:00:00.00 219316  133 metromint cycling
DNPFrank Marquez   San Leandro, CA00:00:00.00 222555  147 FFBC RACE TEAM
DNPRussell McCrary   San Ramon, CA00:00:00.00 253276  150 ZteaM Cycling
DNPAlejandro Quintero   Belmont, CA00:00:00.00 220245  165 Peninsula Velo/Kondra Systems
DNPBret Roberts   San Francisco, CA00:00:00.00 271061  173 Easton/SugarCRM/Specialized
DNPScott Uyeda   Sunnyvale, CA00:00:00.00 105157  191 NA
DNPJoakim Vinberg   Cupertino, CA00:00:00.00 226014  194 Stanford Cycling
DNPStephen Youtsey   Los Gatos, CA00:00:00.00 102258  198 Dolce Vita Cycling

Men - Cat 5

 Place Points NameCity, StateTime USAC #BibTeam
1540.00Joseph Chicoine   Fresno, CA00:00:00.00 253987  258 Steven's Bicycles
2541.61Gregory Sakzewski   Pacific Grove, CA00:00:00.00 270201  290 Don Chapin Monterey Bay Racing
3543.23Shiori Sasaki   San Francisco, CA00:00:00.00 238058  291 Berkeley Bicycle Club
4544.84Joseph Morales   Gilroy, CA00:00:00.00 159452  279 SJBC/SugarCRM
5546.45David Hopkins   Santa Cruz, CA00:00:00.00 169930  272 Spokesman Bikes/SCCCC
6548.06Chris Kollar   Saint Helena, CA00:00:00.00 113053  274 NA
7549.68Brandon Gallagher   Eugene Or00:00:00.00 271553  268 TeamCS
8551.29Julio Cesar Esqueda   Oakland, CA00:00:00.00 272384  265 Berkeley Bicycle Club
9552.90Jake Goldfield   Mountain View, CA00:00:00.00 273814  270 Easton/SugarCRM/Specialized
10554.52Scott Riddle   San Jose, CA00:00:00.00 270475  288 SJBC/SugarCRM
11556.13Jorge Pont   Menlo Park, CA00:00:00.00 237177  285 Webcor / Alto Velo
12557.74Chad Thomas   San Mateo, CA00:00:00.00 272148  296 Peninsula Velo/Kondra
13559.35Jonathan Southam   Napa, CA00:00:00.00 271641  293 Reno Wheelmen
14Tom Logan   00:00:00.00  276 
15562.58Zach Starnes   San Francisco, CA00:00:00.00 275960  295 
16564.19Edward Falsken   Hayward, CA00:00:00.00 259659  266 Fremont Freewheelers Race Team
17565.81DANNY NAPOLEZ   Seaside, CA00:00:00.00 276059  280 MBRT/DON CHAPIN
18567.42stephen Hughes   Santa Rosa, CA00:00:00.00 265627  273 Stephen Hughes
19569.03Mark Skrivanich   Walnut Creek, CA00:00:00.00 256112  292 Synergy-Taleo
20Shawne Camp   00:00:00.00  257 
21572.26Eddie Broeder   Morgan Hill, CA00:00:00.00 237165  254 SJBC/SugarCRM
22Anthiny Caligaris   00:00:00.00  271 
23575.48Jason de Bretteville   Los Altos, CA00:00:00.00 272906  263 Webcor/Alto Velo
24577.10Chris Spier   Los Gatos, CA00:00:00.00 276286  294 NA
25578.71ryan price   Santa Rosa, CA00:00:00.00 267121  286 NA
26580.32Steven Ohlhaber   Chicago00:00:00.00 223376  282 TeamCS
27581.94Christopher Brown   Monterey, CA00:00:00.00 254961  256 Don Chapin Montereay Bay Racin
28583.55Jeff Davis   Napa , CA00:00:00.00 258258  262 Colavita/SutterHome-NorCal
29585.16Peter Newell   Alamo, CA00:00:00.00 268555  281 Third Pillar
30Amin Tamariz   00:00:00.00  251 
31588.39Robert Artigo   Foster City, CA00:00:00.00 266426  252 KGO AM 810
32590.00David Villalpando   Sunnyvale, CA00:00:00.00 237542  298 Unattached
DNSRutilio Aquino   Oakland, CA00:00:00.00 272957   Zteam Cycling
DNSBrendan Cullen   Atherton, CA00:00:00.00 260081   n/a
DNSCarlos Hernandez   00:00:00.00   NA
DNSRussell Fong   San Francisco, CA00:00:00.00 268538   East Bay Velo Club
DNPChristian Villasana   San Francisco, CA00:00:00.00 229257  250 Teamswift
DNPSam Benedict   Morgan Hill, CA00:00:00.00 194963  253 Specialized
DNPSean Broeder   Sunnyvale, CA00:00:00.00 274276  255 
DNPCurtis Cramblett   San Jose, CA00:00:00.00 183932  259 NA
DNPBrian Johnson   Santa Cruz, CA00:00:00.00 276140  260 
DNPJeff Davies   Healdsburg, CA00:00:00.00 271781  261 Team CS
DNPMario Enriquez   San Jose, CA00:00:00.00 274366  264 Superior Cycling Team
DNPScott Price   Lafayette, CA00:00:00.00 271249  267 
DNPRobert Gaukel   Santa Cruz, CA00:00:00.00 261233  269 Bicycle Trip
DNPGeoffrey Kwan   Alameda, CA00:00:00.00 240055  275 Kaiser Permanente/Team Oakland
DNPPatrick Maher   Bethesda, MD00:00:00.00 274527  277 NA
DNPKyle McElroy   Morgan Hill, CA00:00:00.00 271349  278 SJBC/SugarCRM
DNPCharles Perkins   00:00:00.00  283 Unattached
DNPIvan Poddubnyy   San Jose, CA00:00:00.00 266310  284 Webcor/AltoVelo
DNPAntonio Ricalde   San Jose, CA00:00:00.00 210987  287 NA
DNPKyle Rose   San Francisco, CA00:00:00.00 276124  289 Team Type 1
DNPMark Valentino   El Dorado Hills, CA00:00:00.00 112974  297 SJBC/Sugar CRM
DNPRene Villalpando   Oakland, CA00:00:00.00 242554  299 Eden Bicycle Racing Team

Women - Cat 3

 Place Points NameCity, StateTime USAC #BibTeam
1540.00Aimee Baker   Menlo Park, CA00:00:00.00 138072  23 Protech Racing
2541.67Lauren Hecht   Mountain View, CA00:00:00.00 261693  Webcor Alto Velo
3Vanessa Drigo   00:00:00.00  Village Peddler
4545.00Jessica Conner   San Francisco, CA00:00:00.00 181072  29 Dolce Vita Cycling
5546.67Andrea Monroe   Oakland, CA00:00:00.00 195672  22 Velo Bella-Kona
6548.33Kim Wik   Fremont, CA00:00:00.00 254251  20 Code3Racing
7550.00Anna Woldring   Mill Valley, CA00:00:00.00 255055  21 Code 3 Racing
8551.67Cathy Crawford   Santa Rosa, CA00:00:00.00 41996  Nor Cal Velo
9553.33susannah breen   Pleasant Hill, CA00:00:00.00 251128  wells fargo racing team
10555.00Starla Teddergreen   Portland, OR00:00:00.00 202033  34 Dolce Vita Cycling
11556.67Janelle Kellman   Sausalito, CA00:00:00.00 217916  10 Dolce Vita
12558.33Carol Irving   Woodland, CA00:00:00.00 17419  26 Cycling-Training.Com/ARPT
13560.00Rita Szeto   Crockett, CA00:00:00.00 195322  28 NorCal Velo Womens Cycling Tea
14561.67Jennie Phillips   Danville, CA00:00:00.00 203722  17 Wells Fargo Racing Team
15563.33Jessica Layman   San Francisco, CA00:00:00.00 242581  14 Metromint Cycling
16565.00Lindsay Segbers   Santa Rosa, CA00:00:00.00 194230  30 NorCal Velo Womens Cycling Tea
17566.67Angela Aldrich   San Jose, CA00:00:00.00 222858  Easton/SugarCRM/Specialized
18568.33Jacqueline Linder   Palo Alto, CA00:00:00.00 203254  33 Webcor/Alto Velo
19570.00Katie Kelly   San Rafael, CA00:00:00.00 199372  11 Mako/Mellow Motors
20571.67Allison Krasnow   Berkeley, CA00:00:00.00 222222  12 Metromint Cycling on Marin BIk
21573.33Birgit Cory   San Francisco, CA00:00:00.00 224694  CRC/Hill & Co.
22575.00Anny Henry   Mountain View, CA00:00:00.00 238246  CRC
23576.67Monique Quandt   Oakland, CA00:00:00.00 196320  18 Metromint Cycling on Marin Bik
24578.33Samantha Taylor   San Francisco, CA00:00:00.00 235763  24 California Road Club
25580.00Wendy Hermes   Fairfield, CA00:00:00.00 224167  27 Eagle Cycling Club
26581.67Janet Gahagen   Mountain View, CA00:00:00.00 207285  32 Monta Vista Velo
27583.33Carrie Edwards   Sausalito, CA00:00:00.00 99021  35 Pasadena Athletic Assoc (PAA)
28585.00Christy Murphy   Novato, CA00:00:00.00 171836  15 
29586.67Sarah Kayfetz   San Francisco, CA00:00:00.00 104310  Dolce Vita
30588.33Denise Prue   Santa Rosa, CA00:00:00.00 244519  31 NorCal Velo Womens Cycling Tea
31590.00Andrea Laue   Berkeley, CA00:00:00.00 235762  13 Metromint Cycling on Marin Bik
DNSCarrie Edwards   Sausalito, CA00:00:00.00 99021  NA
DNSJulie Nevitt   Saratoga, CA00:00:00.00 136522  16 SJBC/SugarCRM
DNSLaura Sanchez   Salinas, CA00:00:00.00 169832  19 VeloBella-Kona
DNPRebecca Katz   Menlo Park, CA00:00:00.00 239508  25 Webcor/Alto Velo

Women - Cat 4

 Place Points NameCity, StateTime USAC #BibTeam
1540.00Marissa Axell   El Cerrito, CA00:00:00.00 269569  201 Roaring Mouse Cycles
2542.08Alison Starnes   Mill Valley, CA00:00:00.00 266806  220 Dolce Vita
3544.17Thea Rusthoven   Oakland, CA00:00:00.00 197776  216 Velo Bella
4546.25Beverly Chaney   Carmel, CA00:00:00.00 221127  204 Roaring Mouse Cycles
5548.33Kim Ladd   Palo Alto, CA00:00:00.00 250460  208 Code 3 Racing
6550.42Linsey Weitzenberg   Seattle, WA00:00:00.00 268265  222 Metromint Cycling on Marin Bik
7552.50Karena Shannon   Castro Valley, CA00:00:00.00 266333  217 Code 3 Raciing
8554.58Morgan Bonar   Oakland, CA00:00:00.00 247685  213 
9556.67Mariko Fischer   Santa Rosa, CA00:00:00.00 254642  232 NorCal Velo
10558.75Mason Cornelius   Dublin, CA00:00:00.00 268258  227 
11560.83Alexis Marbach   Santa Rosa, CA00:00:00.00 196836  230 NorCal Velo
12562.92Emma Piggott   San Diego, CA00:00:00.00 219665  214 Dolce Vita Cycling
13565.00Margaret Winder   Lafayette, CA00:00:00.00 237600  223 Metromint Cycling on Marin Bik
14567.08Ruth Winder   Lafayette, CA00:00:00.00 273081  224 
15569.17Heather Cafferata   Santa Rosa, CA00:00:00.00 211030  231 NorCal Velo
16571.25Kate Riedell   Oakland, CA00:00:00.00 188596  215 Roaring Mouse Cycles
17573.33rebecca butz   Redwood City, CA00:00:00.00 272811  202 Roaring Mouse Cycles
18575.42Chrissy Hemenes   Brentwood, CA00:00:00.00 254745  229 
19577.50Mary Glenn Carrasco   Foster City, CA00:00:00.00 266378  203 Velo Girls
20579.58Meredith Obendorfer   San Francisco, CA00:00:00.00 222062  211 Roaring Mouse Cycles
21581.67Gail DeCamp   Santa Clara, CA00:00:00.00 211695  200 
22583.75Emily McLanahan   San Francisco, CA00:00:00.00 272159  228 
23585.83Michelle Diaz   San Jose, CA00:00:00.00 257714  206 Code 3 Racing
24587.92Sarah Clatterbuck   Sunnyvale, CA00:00:00.00 237674  205 Velo Girls
25590.00Sara Southam   Napa, CA00:00:00.00 275385  219 Reno Wheelman
DNSLucia Mokres   Redwood City, CA00:00:00.00 262113  209 Easton/SugarCRM/Specialized
DNSCarole Sykes   Tiburon00:00:00.00 270735  221 Easton/SugarCRM/Specialized
DNSChristina Yglesias   Cupertino, CA00:00:00.00 264750  225 SJBC/SugarCRM
DNSAlice Pierce   Oakland, CA00:00:00.00 271451   Metromint Cycling on Marin Bik
DNPTanya Keen   Portola Valley, CA00:00:00.00 271323  207 Velo Girls
DNPLisa Mueller   Menlo Park, CA00:00:00.00 271891  210 Velo Girls
DNPJasmin Parsons   Pleasanton, CA00:00:00.00 254437  212 InfoVista
DNPAshley Shimabuku   El Cerrito, CA00:00:00.00 271338  218 Roaring Mouse Cycles
DNPMeegan Massagli   San Francisco, CA00:00:00.00 272260  226 

Women - Cat 4 - Master - 35-99

 Place Points NameCity, StateTime USAC #BibTeam
1540.00Susan Sall   San Francisco, CA00:00:00.00 233604  245 Dolce Vita
2543.85Jeanine Bates   San Francisco, CA00:00:00.00 195292  237 Code 3 Racing
3547.69Lisa Stefke   Berkeley, CA00:00:00.00 255542  247 Left Coast Racing Team
4551.54Kathryn Underhill   San Ramon, CA00:00:00.00 270296  236 Wells Fargo Racing Team
5555.38Kelly Snow   San Francisco, CA00:00:00.00 255117  246 Dolce Vita
6559.23Katherine Hamilton   Fairfax, CA00:00:00.00 253544  239 Code 3 Women's Racing
7563.08April Hamlin   El Dorado Hills, CA00:00:00.00 266244  240 Velo Bella
8June Nguyen   00:00:00.00  234 NorCal Velo
9570.77Cathy Morgan   Nashville, TN00:00:00.00 204300  243 Roaring Mouse Cycles
10574.62Kerry Stivaletti   Los Gatos, CA00:00:00.00 239419  248 Easton/Sugar CRM/Specialized
11578.46Brandi Bergstrom   San Francisco, CA00:00:00.00 264433  235 
12582.31Dorit Hillmann   San Francisco, CA00:00:00.00 276123  241 CyclingCalifornia.Com
13586.15Julia Camp   San Francisco, CA00:00:00.00 271058  238 Dolce Vita
14590.00Lisa Hern   Los Gatos, CA00:00:00.00 258499  233 
DNSAnn Stuart   Sacramento, CA00:00:00.00 250365  249 Sacramento Golden Wheelmen
DNPKaty JossY   Hayward, CA00:00:00.00 269571  242 Roaring Mouse Cycles
DNPBrett Ortiz   San Francisco, CA00:00:00.00 271361  244 Zgirls

Report missing or incorrect license numbers

Volkswagen
CUORESierra NevadaUSACDFShimanoBonk BreakerSpy
UCI USA Cycling is the official governing body for all disciplines of competitive cycling in the United States. The 501c3, membership-based organization aims both to achieve sustained success in international cycling competition and to grow competitive cycling in America while delivering an exceptional customer experience.
View Children's Online Privacy Protection Policy
US Olympic Committee